Theta_e
294 298 297 295 296 295 291 290 287 289 292 295 296 298 295 295 295 295 294 294 294 292 292 292 294 297 297 298 297 297 297 299 299 299 297 297 297 298 299 299 298 298 297 294
291 298 298 295 297 297 295 294 294 294 292 297 296 296 296 296 296 295 295 295 294 294 294 294 295 295 298 299 297 296 296 296 297 298 298 297 297 298 298 298 298 296 295 292
286 296 294 288 294 294 294 295 296 291 294 296 295 296 296 296 296 295 295 295 294 293 293 295 297 297 296 300 297 295 295 297 297 298 298 297 297 296 296 297 296 296 293 292
286 289 281 291 299 298 295 297 297 297 297 298 296 295 295 296 295 295 295 294 293 293 294 297 298 298 299 300 296 296 295 296 297 297 297 297 294 292 293 295 295 295 292 291
285 284 290 295 298 294 291 292 298 297 296 296 296 295 293 296 296 294 293 292 292 292 297 297 298 299 299 295 295 295 295 296 297 297 296 296 292 290 290 292 294 293 292 290
285 283 283 292 299 300 297 286 298 298 296 295 295 289 291 295 295 293 293 293 293 293 294 294 298 299 294 293 293 294 295 296 297 297 294 291 290 289 289 291 295 295 293 290
283 282 290 297 301 301 288 289 298 299 297 296 293 293 294 295 293 293 293 293 293 293 292 293 298 296 293 292 292 294 296 297 297 296 293 287 286 286 286 290 290 289 288 286
287 284 284 301 299 293 295 295 299 298 297 296 294 294 294 293 292 292 292 293 293 291 291 293 294 293 292 291 294 295 296 297 296 293 293 290 285 285 285 285 286 286 286 287
291 291 298 299 297 299 299 299 298 298 297 296 294 294 293 291 291 292 292 292 293 293 292 292 293 293 292 293 296 297 297 297 296 295 291 292 289 286 285 284 285 286 286 286
294 299 301 302 301 301 301 300 300 299 298 297 295 294 292 291 291 291 291 292 293 292 292 292 293 295 294 296 298 297 296 296 294 295 292 289 291 290 284 284 285 285 286 286
295 299 302 303 302 302 302 302 300 300 298 297 296 293 292 291 291 291 292 293 293 293 292 293 294 295 296 298 298 296 295 294 293 293 293 292 289 291 291 286 286 285 285 284
294 302 300 301 303 304 301 301 301 299 297 297 296 294 292 291 292 291 292 293 293 293 293 294 295 296 297 297 295 292 291 291 291 291 291 291 291 291 292 291 291 290 289 287
300 303 303 304 304 303 301 301 301 300 299 296 295 294 293 291 291 294 293 293 294 294 295 295 296 297 297 297 297 295 292 290 291 291 291 290 290 291 290 292 293 292 291 290
304 306 302 303 301 302 301 302 303 300 299 297 296 295 294 293 294 294 293 295 295 296 296 296 297 297 297 297 297 297 295 294 290 290 290 290 290 290 290 291 291 291 291 291
305 304 304 303 302 300 302 300 298 297 296 295 295 295 294 293 293 294 295 296 297 297 298 298 297 296 297 298 297 297 297 295 294 292 290 290 290 290 290 291 291 290 289 291
305 304 304 302 301 300 300 299 297 296 296 295 294 294 295 294 295 296 297 298 295 294 297 297 296 297 298 298 296 296 296 296 294 293 292 292 291 290 290 290 290 290 289 289
301 299 301 300 300 299 299 300 299 298 297 296 295 295 295 295 295 296 296 297 297 296 296 295 296 298 300 298 298 298 296 294 292 292 292 292 292 290 290 290 289 289 290 290
306 306 305 304 301 300 299 300 300 299 298 297 297 296 295 294 294 295 297 296 295 296 297 297 298 298 299 299 298 298 297 295 292 292 292 292 291 291 290 290 291 290 290 291
305 305 304 304 303 302 301 300 299 299 298 298 298 296 296 295 296 296 297 295 296 295 296 299 298 296 293 295 296 297 298 294 293 292 292 291 291 292 291 291 291 291 291 291
304 306 306 304 304 302 301 301 300 298 299 299 298 296 295 295 297 297 297 296 296 297 297 298 298 296 296 297 294 294 293 292 292 292 292 291 292 292 292 291 292 292 293 294
304 305 305 304 304 303 303 301 299 298 298 299 297 297 296 295 297 297 295 294 297 298 299 297 299 298 297 293 290 290 291 293 293 293 293 293 293 293 293 294 295 295 296 294
305 305 305 304 302 300 300 299 299 299 299 298 298 298 297 295 296 297 297 296 297 295 298 298 298 293 295 289 290 291 295 295 295 294 294 293 292 292 292 292 293 294 294 293
305 305 304 302 301 299 299 299 299 299 298 298 298 298 300 296 296 295 295 299 299 297 299 298 289 286 285 292 294 295 296 295 294 294 293 292 291 291 290 290 290 290 290 290
303 303 301 300 300 299 296 296 297 298 298 298 300 302 301 299 295 297 298 296 293 295 298 296 289 286 287 293 294 294 293 293 292 292 291 288 290 289 289 289 288 288 288 288
302 301 300 299 298 297 297 297 296 297 298 298 301 303 303 303 298 298 299 300 295 295 299 287 286 287 295 293 292 291 291 291 291 290 290 289 288 288 288 288 287 287 287 286
301 301 300 300 298 298 298 298 297 297 298 299 302 303 303 300 300 300 300 299 305 295 295 294 296 295 294 293 292 292 292 291 291 289 289 288 287 286 286 286 285 285 285 284
299 297 298 298 297 298 298 297 297 296 298 301 302 303 304 303 303 301 298 304 302 298 298 297 296 294 294 293 292 292 291 290 288 288 288 287 286 285 285 285 286 286 286 286
Wind_Speed
2 3 2 3 5 2 7 6 7 6 9 8 9 10 12 13 12 12 9 8 6 5 4 3 2 3 4 3 4 4 6 5 6 6 6 6 7 7 7 6 5 6 6 7
1 1 1 4 6 7 6 4 2 5 3 4 5 10 12 13 13 11 9 8 7 6 5 3 3 3 3 3 3 5 5 5 6 6 6 7 6 7 6 6 6 6 6 7
3 4 4 6 6 4 3 4 8 5 7 8 9 12 13 12 12 12 10 9 7 6 5 3 2 2 2 2 3 4 4 5 6 6 7 7 7 6 6 4 3 4 5 6
2 4 2 9 5 4 7 3 1 3 10 10 9 6 7 4 7 8 8 7 6 5 3 3 2 1 1 1 3 3 4 5 5 6 6 7 6 6 5 3 2 1 4 6
5 4 5 6 3 5 4 2 3 8 7 8 9 6 5 2 3 6 6 6 5 5 4 3 3 2 1 2 2 3 4 6 6 6 6 6 7 8 5 3 1 2 2 5
3 4 6 7 5 2 5 4 7 9 13 14 6 5 5 7 6 7 7 6 6 5 3 4 3 2 1 1 2 3 5 6 6 6 6 6 5 6 5 3 3 2 3 4
3 3 7 8 6 1 5 9 8 12 14 14 7 4 5 11 6 6 6 7 5 5 6 5 4 2 2 1 3 3 5 6 6 5 5 4 4 4 4 4 4 5 6 5
3 3 7 5 4 8 8 2 6 6 7 7 7 9 11 8 8 7 7 6 6 6 5 4 3 3 2 3 3 3 5 6 6 4 3 3 4 4 5 5 4 4 4 4
9 9 5 4 5 1 6 8 6 8 5 9 12 7 9 8 8 7 7 6 5 6 5 3 3 3 3 4 3 4 5 6 5 5 4 2 3 5 4 5 4 4 4 4
5 4 4 3 3 5 5 6 7 6 12 12 13 12 8 8 7 6 6 5 5 6 5 4 3 3 6 5 5 5 6 6 6 4 3 3 2 2 2 3 3 3 4 4
1 2 4 4 2 8 5 7 10 9 8 9 13 10 11 7 7 6 6 4 6 6 4 3 3 5 6 6 4 4 5 4 5 3 4 4 4 5 5 5 5 3 4 3
7 9 8 8 6 8 11 10 14 13 8 7 8 14 9 8 7 6 6 5 4 4 3 4 4 5 4 3 2 2 2 2 3 3 3 3 4 5 9 12 10 10 11 7
6 7 5 2 9 6 8 13 11 11 11 14 7 9 10 6 6 8 6 6 5 6 4 2 4 6 4 3 0 1 3 4 3 3 4 4 3 4 5 5 7 13 12 13
4 9 5 4 7 8 10 11 10 8 8 9 11 7 8 7 6 7 7 7 5 4 4 4 5 7 6 1 1 3 4 5 3 4 4 4 4 4 4 3 3 5 5 3
9 1 5 10 12 9 11 13 12 10 8 8 8 9 9 10 8 9 6 6 5 5 6 5 5 8 6 2 2 3 3 3 4 5 5 5 4 4 4 3 4 4 4 5
6 8 13 13 14 13 13 10 12 9 9 7 8 9 9 7 7 6 6 5 5 6 7 6 6 8 5 2 3 4 4 6 5 5 5 4 3 3 4 4 4 4 4 5
9 6 8 12 16 16 15 13 13 13 10 10 10 8 8 8 6 6 5 6 7 6 6 6 7 4 4 3 2 4 3 5 7 5 4 5 4 4 5 4 4 4 5 3
10 16 17 20 17 14 10 10 11 13 11 11 9 9 9 9 7 7 5 5 3 4 4 6 5 3 2 1 2 3 4 4 5 5 5 4 4 4 4 5 4 5 4 3
8 13 11 15 16 14 14 13 12 11 9 11 11 11 9 8 7 5 3 5 5 4 4 6 5 2 1 3 4 4 4 5 5 5 4 4 4 4 2 3 3 3 3 2
7 11 15 14 13 15 14 10 11 10 10 10 8 8 8 7 7 6 4 6 7 6 4 5 4 3 2 3 5 2 4 4 5 3 3 4 3 5 5 5 4 4 4 4
15 15 17 17 13 12 12 13 13 12 11 11 11 10 9 7 7 6 4 4 4 5 5 6 5 3 2 2 2 3 4 3 1 5 5 3 4 5 5 5 5 5 5 5
15 16 16 15 14 10 9 10 10 11 11 9 7 8 9 7 7 5 2 4 1 1 2 1 2 1 4 4 2 2 4 5 6 5 4 4 5 5 5 5 6 6 5 5
13 16 15 16 15 13 11 10 10 12 11 10 10 9 9 6 5 5 3 3 2 2 2 1 2 3 1 5 5 6 6 6 5 5 5 5 5 5 5 5 5 6 6 6
14 13 12 12 15 14 13 6 8 8 8 7 8 8 8 6 2 3 3 3 1 2 4 4 4 4 7 5 5 6 5 5 5 5 5 6 5 5 5 5 5 5 6 7
15 15 16 15 13 8 11 10 8 7 8 6 6 6 7 5 5 5 4 3 4 1 3 5 6 8 6 5 6 7 6 5 5 5 5 4 4 4 5 5 5 5 5 6
15 11 9 11 10 10 8 8 7 6 6 6 4 4 4 4 4 5 5 5 3 6 5 4 6 8 7 7 7 7 6 6 6 6 5 4 5 5 5 5 5 5 5 5
11 11 10 9 6 8 8 8 8 7 6 6 6 5 5 4 4 5 5 4 5 5 5 7 7 8 9 7 7 7 7 6 7 5 5 5 5 5 5 5 7 7 6 7
Wind_Direction
142 163 191 226 251 215 197 206 160 233 193 208 193 164 152 140 134 137 144 148 145 152 185 196 87 89 69 45 28 18 17 353 353 352 343 344 352 349 346 353 350 359 4 357
351 270 180 250 265 263 221 122 75 111 230 150 106 111 138 152 150 153 159 161 163 174 176 151 93 60 44 43 3 33 5 349 343 342 340 337 332 333 336 342 5 18 13 2
252 346 1 325 237 236 174 149 144 170 213 150 145 156 160 157 162 162 164 161 165 170 177 137 116 101 19 356 1 13 349 347 345 338 333 326 330 335 327 325 353 358 358 5
176 35 254 245 285 245 113 74 231 83 152 154 138 91 83 85 142 148 150 156 159 169 168 144 163 162 285 342 20 357 344 342 324 328 321 329 345 351 343 332 341 37 11 8
139 178 287 293 227 172 153 221 159 132 109 107 111 69 17 73 110 149 149 153 165 182 174 169 174 178 305 51 11 6 346 328 322 327 332 338 352 346 337 344 27 77 40 15
143 144 213 238 279 156 109 298 164 144 151 149 147 151 228 162 129 129 135 151 169 175 139 168 171 199 51 327 9 334 332 317 319 337 348 344 340 333 337 355 56 54 7 1
125 185 286 242 244 328 93 237 164 168 161 163 179 184 142 134 130 146 159 165 154 153 169 183 197 139 249 309 272 280 311 312 324 341 336 357 357 352 332 11 32 19 7 346
97 95 279 181 67 171 204 50 142 139 158 133 110 116 129 131 145 155 159 163 164 163 184 204 192 139 231 268 254 291 305 316 325 326 323 30 20 350 6 12 30 11 2 350
164 206 236 225 207 183 149 143 155 129 139 131 134 154 149 153 157 166 173 175 172 171 173 197 185 160 214 257 294 306 315 311 305 303 315 347 11 1 354 355 13 0 5 351
92 242 232 203 100 142 155 138 138 131 146 150 151 153 147 153 160 164 172 174 155 151 164 188 194 205 229 268 283 288 291 298 305 275 276 280 280 259 279 300 319 328 331 330
189 347 53 330 261 160 122 108 106 119 141 148 144 154 156 158 165 168 172 148 143 148 162 197 223 250 257 262 250 256 284 299 321 316 294 287 263 253 248 241 209 236 257 259
208 198 167 207 181 154 143 158 154 142 129 145 153 154 155 162 165 155 170 140 152 162 178 225 250 269 286 270 219 225 262 290 285 308 328 312 285 296 235 236 250 243 240 231
192 176 164 126 144 138 142 147 147 142 151 148 137 152 155 156 161 160 162 165 187 197 217 260 298 306 278 261 33 4 337 325 316 297 308 314 298 269 304 322 255 258 257 247
128 111 60 170 181 145 133 130 125 116 127 143 145 143 152 148 153 155 173 192 198 219 248 256 281 280 266 252 360 2 331 312 314 303 306 305 300 277 257 247 280 297 306 264
160 143 159 113 113 108 123 124 125 135 137 131 150 154 157 159 161 176 177 184 200 226 251 251 264 261 262 286 303 306 320 307 315 302 281 275 283 286 270 267 255 254 301 315
114 120 127 131 134 136 137 138 137 148 150 144 155 166 168 157 157 166 181 191 176 228 236 224 233 248 263 274 298 312 322 302 291 293 299 286 276 287 279 264 278 265 250 250
107 100 115 142 156 165 172 163 160 160 152 160 171 160 150 152 153 176 202 210 211 214 209 203 238 251 226 251 315 306 304 310 306 296 289 282 270 274 281 272 264 268 262 225
173 174 177 166 163 158 155 156 153 156 169 169 155 153 154 159 171 186 214 181 182 222 225 218 208 209 238 3 330 306 295 296 306 298 301 297 286 287 280 298 304 281 293 266
168 162 157 161 164 160 155 159 165 162 147 156 159 171 165 160 166 180 147 150 185 174 248 213 217 226 232 293 313 299 293 301 298 295 307 336 337 295 297 318 303 312 288 307
173 171 153 153 155 156 160 160 153 155 158 154 145 142 155 161 161 157 148 177 196 198 196 213 184 234 288 315 345 307 291 301 310 332 29 18 16 18 9 3 13 29 6 347
168 163 156 155 159 157 161 153 151 158 159 157 160 169 163 156 149 146 130 147 232 235 247 215 195 221 256 258 305 320 313 325 41 73 72 49 39 29 23 20 24 27 25 18
166 160 155 151 149 137 139 145 144 140 149 147 142 141 143 154 149 147 158 168 197 266 100 162 203 48 228 252 23 21 56 91 83 74 64 50 44 33 24 21 24 24 21 16
159 156 147 148 147 138 127 135 142 147 148 152 156 159 162 163 154 143 168 228 186 267 190 233 98 140 118 62 80 73 66 69 70 66 57 48 42 39 35 29 24 23 18 12
135 137 128 120 124 127 132 132 130 133 138 142 148 157 148 141 151 189 171 161 157 253 222 109 111 95 91 76 74 77 71 68 67 63 57 44 39 35 36 27 23 16 18 15
132 126 127 131 132 131 129 132 120 126 131 137 150 162 150 152 152 188 187 199 238 205 85 111 126 108 91 82 83 78 70 62 60 63 52 43 34 34 33 32 27 18 18 12
130 131 133 132 133 133 133 138 144 148 141 142 147 151 144 138 146 148 180 197 186 93 127 117 107 99 93 88 84 80 75 70 64 55 52 45 41 38 37 30 28 25 20 15
99 113 105 99 104 132 140 143 145 152 148 152 151 157 143 151 162 161 179 180 106 134 111 117 108 104 104 94 87 81 77 69 58 62 54 49 44 40 28 31 33 26 22 22